Location: Unspecified
(0.0000°N, 0.0000°E)
Time: 12:04:28
(UTC+00:00)

Hubble Space Telescope - Pass Details

Date: 04 December 2019
Orbit: 536 x 540 km, 28.5° (Epoch: 10 December)

Event Time Altitude Azimuth Distance (km) Brightness Sun altitude
Rises 18:46:47 0° 297° (WNW) 2,663 4.9 -13.1°
Reaches altitude 10° 18:49:02 10° 295° (WNW) 1,774 4.0 -13.6°
Maximum altitude 18:53:08 73° 210° (SSW) 558 0.9 -14.5°
Drops below altitude 10° 18:57:14 10° 126° (SE) 1,780 3.1 -15.5°
Enters shadow 18:57:16 10° 125° (SE) 1,793 3.1 -15.5°
